Find OneWeb SL0061

NORAD ID: 45428 Int'l Des: 2020-020 Owner: ONEWEB Country: UK Constellation: oneweb operational
LEOCIRCULARPOLARONEWEB_TYPE

Live Position

Loading 3D Globe...

About OneWeb SL0061

Description loading...

Upcoming Passes

Passes for default location (London). Set your location on the main map for personalized predictions.

Altitude History

Loading altitude history...

Two-Line Element Set

1 45428U 20020E 26125.21351308 -.00000396 00000-0 -11533-2 0 9991
2 45428 87.8930 29.5993 0001830 77.8949 282.2384 13.11417117296994
Epoch: May 5, 2026 • Age: 5 hours

Current Status

Altitude 1247.9 km
Velocity 7.23 km/s
Sub-Earth Point -87.88°S, 68.11°W
Launch Date Mar 21, 2020
Age 6.1 years
Type internet

Technical Details

Classification Payload
Mass 148.00 kg
Dry Mass 140.00 kg
Total Mass 148.00 kg
Length 1.30 m
Diameter 1.00 m
Span 5.00 m
Shape Trapezoid+2 pan
Manufacturer ONEWUS
Bus Type ARROW
Phase Status In Orbit
Owner/State ONEWEB/UK

Most Searched